Change the Weather History Date:

Saturday, September 14, 2013

  Actual Average Record
Temperature  
Mean Temperature 91 °F -  
Max Temperature 102 °F 101 °F 109 °F (1998)
Min Temperature 80 °F 77 °F 78 °F (2001)
Cooling Degree Days 26    
Growing Degree Days 41 (Base 50)    
Moisture  
Dew Point 67 °F    
Average Humidity 45    
Maximum Humidity 74    
Minimum Humidity 20    
Precipitation  
Precipitation 0.00 in - - ()
Sea Level Pressure  
Sea Level Pressure 29.79 in    
Wind  
Wind Speed 7 mph ()    
Max Wind Speed 16 mph    
Max Gust Speed -    
Visibility 5.8 miles    
Events      
Averages and records for this station are not official NWS values.
T = Trace of Precipitation, MM = Missing Value Source: Averaged Metar Reports

Daily Weather History Graph

Daily Weather History Graph

Search for Another Location

Airport or City:

Trip Planner

Search our weather history database for the weather conditions in past years. The results will help you decide how hot, cold, wet, or windy it might be!

Date:

Astronomy

Sep. 14, 2013 Rise Set
Actual Time 6:03 AM GST 6:22 PM GST
Civil Twilight 5:40 AM GST 6:45 PM GST
Nautical Twilight 5:14 AM GST 7:11 PM GST
Astronomical Twilight 4:47 AM GST 7:38 PM GST
Moon 2:18 PM GST (9/14) 12:36 AM GST (9/14)
Length of Visible Light 13h 04m
Length of Day
12h 19m
Waxing Gibbous, 68% of the Moon is Illuminated
Sep 14
Waxing Gibbous
Sep 19
Full
Sep 27
Last Quarter
Oct 5
New
Oct 12
First Quarter

Hourly Weather History & Observations

Time (GST) Temp. Heat Index Dew Point Humidity Pressure Visibility Wind Dir Wind Speed Gust Speed Precip Events Conditions
12:00 AM 87.8 °F 92.6 °F 69.8 °F 55% 29.83 in - North 3.5 mph - N/A   Clear
1:00 AM 87 °F - 71 °F 51% 29.78 in 6 mi North 5.8 mph - -  
1:00 AM 86.0 °F 91.8 °F 71.6 °F 62% 29.83 in - North 5.8 mph - N/A   Clear
2:00 AM 86.0 °F 91.8 °F 71.6 °F 62% 29.83 in - East 4.6 mph - N/A   Clear
3:00 AM 86.0 °F 90.4 °F 69.8 °F 58% 29.80 in - East 4.6 mph - N/A   Clear
4:00 AM 84.2 °F 88.4 °F 69.8 °F 62% 29.80 in - East 4.6 mph - N/A   Clear
5:00 AM 84.2 °F 87.3 °F 68.0 °F 58% 29.80 in - East 3.5 mph - N/A   Clear
6:00 AM 82.4 °F 84.6 °F 66.2 °F 58% 29.83 in - SE 5.8 mph - N/A   Clear
7:00 AM 82 °F - 65 °F 48% 29.81 in 6 mi SE 5.8 mph - -  
7:00 AM 82.4 °F 84.6 °F 66.2 °F 58% 29.83 in - SE 5.8 mph - N/A   Clear
8:00 AM 86.0 °F 87.3 °F 64.4 °F 48% 29.86 in - SSE 12.7 mph - N/A   Clear
9:00 AM 87.8 °F 90.4 °F 66.2 °F 49% 29.86 in - SSE 12.7 mph - N/A   Clear
10:00 AM 92 °F - 67 °F 33% 29.82 in 6 mi South 13.8 mph - -  
10:00 AM 91.4 °F 94.0 °F 66.2 °F 43% 29.86 in - South 13.8 mph - N/A   Clear
11:00 AM 95.0 °F 97.0 °F 64.4 °F 36% 29.86 in - South 10.4 mph - N/A   Clear
12:00 PM 96.8 °F 98.0 °F 62.6 °F 32% 29.83 in - South 9.2 mph - N/A   Clear
1:00 PM 99 °F - 62 °F 20% 29.74 in 6 mi West 4.6 mph - -  
1:00 PM 98.6 °F 100.0 °F 62.6 °F 30% 29.80 in - West 4.6 mph - N/A   Clear
2:00 PM 100.4 °F 101.3 °F 60.8 °F 27% 29.77 in - SW 4.6 mph - N/A   Clear
3:00 PM 102.2 °F 103.6 °F 60.8 °F 26% 29.74 in - West 9.2 mph - N/A   Clear
4:00 PM 102.2 °F 102.4 °F 59.0 °F 24% 29.71 in 6.2 mi NW 8.1 mph - N/A   Partly Cloudy
5:00 PM 102.2 °F 101.4 °F 57.2 °F 22% 29.71 in 6.2 mi NW 11.5 mph - N/A   Partly Cloudy
6:00 PM 98.6 °F 101.0 °F 64.4 °F 32% 29.71 in 5.0 mi NNW 16.1 mph - N/A   Partly Cloudy
7:00 PM 95 °F - 65 °F 28% 29.70 in 6 mi NW 15.0 mph - -   Scattered Clouds
7:00 PM 95.0 °F 98.5 °F 66.2 °F 39% 29.74 in 6.2 mi NW 15.0 mph - N/A   Partly Cloudy
8:00 PM 91.4 °F 96.8 °F 69.8 °F 49% 29.77 in - NNW 15.0 mph - N/A   Clear
9:00 PM 89.6 °F 99.8 °F 75.2 °F 62% 29.80 in - NNW 12.7 mph - N/A   Clear
10:00 PM 87.8 °F 99.7 °F 77.0 °F 70% 29.80 in 5.0 mi NNW 11.5 mph - N/A   Unknown
11:00 PM 86.0 °F 96.9 °F 77.0 °F 74% 29.77 in 5.0 mi NNW 9.2 mph - N/A   Unknown